カタログに戻る

STARLINK-30433

運用中通信VLEO
NORAD 57878·PAYLOAD·🇺🇸 United States

打ち上げ Sep 16, 2023 から Cape Canaveral Space Force Station

Loading…

次のパス (今後24時間)

TLE

最新Source: CelesTrak SupGP

元期: Sep 14, 2026, 20:58 UTC

1 57878C 23144Q   26257.87409722 -.00014587  00000+0 -52838-3 0  2572
2 57878  43.0006 296.4417 0001477 268.0382 134.2503 15.27583860    15

AllMySatでSTARLINK-30433をリアルタイム追跡

Download on the App Store